User: anonymous   Login
Location: Luz Observatory
(34.5000°N, 117.2833°W)
Time: 18:38:08
(UTC-07:00)
Language:

Cosmos 1452 Rocket - Orbit

View from above orbital plane
View from above orbital plane
View from above satellite
View from above satellite

Ground track
Ground track

The orbit data is extracted from the following two-line orbital elements,

1 13992U 83031B   16211.69039709 +.00000056 +00000-0 +28335-4 0  9999
2 13992 074.0516 238.6132 0006240 295.3017 203.9464 14.36044180742229
Epoch (UTC): 29 July 2016 16:34:10
Eccentricity: 0.0006240
inclination: 74.0516°
perigee height: 767 km
apogee height: 776 km
right ascension of ascending node: 238.6132°
argument of perigee: 295.3017°
revolutions per day: 14.36044180
mean anomaly at epoch: 203.9464°
orbit number at epoch: 74222

The dashed part of the orbit path shows where the satellite is in the earth's shadow,  

DLR